Tracking 29059 objects as of 19-Jun-2024
HD Live streaming from Space Station
objects crossing your sky now

STARLINK-5830

Track STARLINK-5830 now!
10-day predictions
STARLINK-5830 is classified as:


NORAD ID: 57065
Int'l Code: 2023-088T
Perigee: 565.5 km
Apogee: 567.0 km
Inclination: 43.0 °
Period: 95.8 minutes
Semi major axis: 6937 km
RCS: Unknown
Launch date: June 22, 2023
Source: United States (US)
Launch site: AIR FORCE WESTERN TEST RANGE (AFWTR)
Your satellite tracking list
Your tracking list is empty




NASA's NSSDC Master Catalog

Two Line Element Set (TLE):
1 57065U 23088T   24170.61128482  .00000672  00000-0  64794-4 0  9999
2 57065  43.0023 285.3987 0001065 269.0972  90.9748 15.02538246 54761
Source of the keplerian elements: AFSPC